Home > Time Zones > World Clock > Weather > India > Gonda > Past weeks

Flag for India Weather past 2 weeks in Gonda, Uttar Pradesh, India

Now
68 °F

Scattered clouds.


Feels Like: 68 °F
Forecast: 59 / 74 °F
Wind: 14 mph from Southeast

Location: Lucknow / Amausi

Current Time: Mar 2, 2015 at 11:18:16 AM

Latest Report: Mar 2, 2015 at 10:30 AM


Visibility: 2 mi

Pressure: 29.98 "Hg

Humidity: 78%

Dew point: 61 °F

Location of GondaLocation

Historic Weather in Gonda — Graph

°F

Gonda temperature yesterday

Maximum temperature yesterday: 73 °F (at 12:00 AM)
Minimum temperature yesterday: 63 °F (at 10:30 AM)
Average temperature yesterday: 65 °F

Past Weeks' High & Low Weather Summary

 TemperatureHumidityPressure
High88 °F (Feb 20, 2:00 PM)100% (Mar 1, 10:30 AM)30.04 "Hg (Mar 1, 10:30 AM)
Low57 °F (Feb 16, 7:00 AM)40% (Feb 21, 11:00 AM)29.71 "Hg (Feb 26, 4:00 AM)
Average72 °F72%29.89 "Hg
* Reported Feb 15 9:30 AM — Mar 2 10:00 AM, Gonda, Weather by CustomWeather, © 2015

Note: Actual official high and low records may vary slightly from our data, if they occured in-between our weather recording intervals... More about our weather records

Advertising

Gonda weather history for previous 24 hours

 ConditionsComfort  
Time TempWeatherWind HumidityBarometerVisibility
10:00 AM
Mon, Mar 2
66 °FBroken clouds.12 mph83%30.01 "Hg2 mi
9:30 AM66 °FScattered clouds.12 mph78%30.01 "Hg2 mi
9:00 AM66 °FScattered clouds.12 mph78%29.98 "Hg2 mi
8:30 AM64 °FScattered clouds.6 mph83%29.98 "Hg2 mi
8:00 AM63 °FScattered clouds.6 mph88%29.98 "Hg2 mi
7:30 AM63 °FScattered clouds.3 mph88%29.98 "Hg2 mi
7:00 AM61 °FBroken clouds.5 mph94%29.95 "Hg2 mi
6:30 AM61 °FMostly cloudy.6 mph94%29.92 "Hg2 mi
1:00 AM61 °FPartly cloudy.12 mph94%29.95 "Hg2 mi
12:00 AM61 °FLight rain. Mostly cloudy.14 mph100%29.95 "Hg2 mi
11:00 PM
Sun, Mar 1
63 °FLight rain. Mostly cloudy.9 mph94%29.98 "Hg2 mi
9:00 PM63 °FLight rain. Mostly cloudy.5 mph100%30.01 "Hg1 mi
8:30 PM63 °FLight rain. Mostly cloudy.3 mph100%30.01 "Hg1 mi
8:00 PM63 °FLight rain. Mostly cloudy.2 mph94%29.98 "Hg1 mi
7:30 PM63 °FLight rain. Mostly cloudy.2 mph94%29.98 "Hg1 mi
7:00 PM63 °FLight rain. Mostly cloudy.2 mph100%29.95 "Hg1 mi
6:30 PM63 °FLight rain. More clouds than sun.2 mph100%29.95 "Hg1 mi
6:00 PM63 °FLight rain. More clouds than sun.2 mph100%29.95 "Hg1 mi
5:30 PM63 °FLight rain. More clouds than sun.2 mph100%29.98 "Hg1 mi
5:00 PM64 °FLight rain. More clouds than sun.2 mph94%30.04 "Hg1 mi
4:30 PM64 °FLight rain. More clouds than sun.2 mph94%29.95 "Hg1 mi
4:00 PM64 °FLight rain. More clouds than sun.2 mph94%29.92 "Hg1 mi
3:30 PM64 °FLight rain. More clouds than sun.5 mph94%29.92 "Hg1 mi
3:00 PM64 °FLight rain. More clouds than sun.6 mph94%29.95 "Hg1 mi
2:30 PM64 °FLight rain. More clouds than sun.7 mph94%29.95 "Hg1 mi
2:00 PM64 °FLight rain. More clouds than sun.7 mph94%29.95 "Hg1 mi
1:30 PM64 °FLight rain. More clouds than sun.5 mph94%29.98 "Hg1 mi
1:00 PM64 °FLight rain. More clouds than sun.6 mph94%30.01 "Hg1 mi
12:30 PM64 °FLight rain. More clouds than sun.6 mph94%30.01 "Hg1 mi
Weather by CustomWeather, © 2015

See weather overviewHow to use our weather pages